Emporia, Virginia, United States (23847)
Lat: 36.69N, Lon: 77.54W
Wx Zone: VAZ087
Local Info
Past Weather Observations for Saturday, April 19, 2014

NOTE: This archive is for the closest National Weather Service station to Emporia. Information may differ from the station used for current weather conditions.

Time Weather Temperature Dewpoint Humidity Pressure Winds Precip Visibility
23:55
Partly Cloudy
50°F / 10°C 43°F / 6°C 76% 30.27 in
(1025 mb)
N 5.8 mph
(N 9 kph)
- 10SM
23:35
Mostly Cloudy
50°F / 10°C 43°F / 6°C 76% 30.27 in
(1025 mb)
N 5.8 mph
(N 9 kph)
- 10SM
23:15
Mostly Cloudy
50°F / 10°C 43°F / 6°C 76% 30.27 in
(1025 mb)
N 4.6 mph
(N 7 kph)
- 10SM
22:55
Mostly Cloudy
50°F / 10°C 43°F / 6°C 76% 30.27 in
(1025 mb)
N 5.8 mph
(N 9 kph)
- 10SM
22:35
Mostly Cloudy
50°F / 10°C 45°F / 7°C 82% 30.27 in
(1025 mb)
N 3.5 mph
(N 6 kph)
- 10SM
22:15
Overcast
50°F / 10°C 45°F / 7°C 82% 30.27 in
(1025 mb)
N 4.6 mph
(N 7 kph)
- 10SM
21:55
Overcast
50°F / 10°C 45°F / 7°C 82% 30.27 in
(1025 mb)
Calm -
21:35
Mostly Cloudy
50°F / 10°C 45°F / 7°C 82% 30.3 in
(1026 mb)
Calm - 10SM
21:15
Mostly Cloudy
50°F / 10°C 45°F / 7°C 82% 30.27 in
(1025 mb)
Calm - 10SM
20:55
Overcast
52°F / 11°C 43°F / 6°C 72% 30.27 in
(1025 mb)
N 3.5 mph
(N 6 kph)
- 10SM
20:35
Overcast
52°F / 11°C 43°F / 6°C 72% 30.27 in
(1025 mb)
N 3.5 mph
(N 6 kph)
- 10SM
20:15
Overcast
50°F / 10°C 45°F / 7°C 82% 30.27 in
(1025 mb)
Calm - 10SM
19:55
Overcast
50°F / 10°C 46°F / 8°C 88% 30.27 in
(1025 mb)
Calm - 10SM
19:35
Overcast
52°F / 11°C 45°F / 7°C 77% 30.24 in
(1024 mb)
Calm - 10SM
19:15
Overcast
52°F / 11°C 45°F / 7°C 77% 30.24 in
(1024 mb)
Calm - 10SM
18:55
Overcast
52°F / 11°C 45°F / 7°C 77% 30.24 in
(1024 mb)
Calm - 10SM
18:35
Overcast
52°F / 11°C 45°F / 7°C 77% 30.21 in
(1023 mb)
Calm - 10SM
18:15
Overcast
52°F / 11°C 45°F / 7°C 77% 30.24 in
(1024 mb)
Calm - 10SM
17:55
Partly Cloudy
52°F / 11°C 45°F / 7°C 77% 30.24 in
(1024 mb)
Calm - 10SM
17:35
Partly Cloudy
52°F / 11°C 45°F / 7°C 77% 30.24 in
(1024 mb)
ENE 3.5 mph
(ENE 6 kph)
-
17:15
Clear
52°F / 11°C 45°F / 7°C 77% 30.24 in
(1024 mb)
Calm - 10SM
16:55
Clear
52°F / 11°C 45°F / 7°C 77% 30.24 in
(1024 mb)
NE 3.5 mph
(NE 6 kph)
- 10SM
16:35
Partly Cloudy
54°F / 12°C 45°F / 7°C 72% 30.24 in
(1024 mb)
NE 4.6 mph
(NE 7 kph)
- 10SM
16:15
Mostly Cloudy
54°F / 12°C 45°F / 7°C 72% 30.21 in
(1023 mb)
NE 3.5 mph
(NE 6 kph)
- 10SM
15:55
Overcast
54°F / 12°C 45°F / 7°C 72% 30.24 in
(1024 mb)
NE 5.8 mph
(NE 9 kph)
- 10SM
15:35
Mostly Cloudy
52°F / 11°C 46°F / 8°C 82% 30.24 in
(1024 mb)
NE 4.6 mph
(NE 7 kph)
- 10SM
15:15
Partly Cloudy
52°F / 11°C 46°F / 8°C 82% 30.24 in
(1024 mb)
NE 4.6 mph
(NE 7 kph)
- 10SM
14:55
Partly Cloudy
52°F / 11°C 46°F / 8°C 82% 30.24 in
(1024 mb)
NNE 4.6 mph
(NNE 7 kph)
- 10SM
14:35
Fair
52°F / 11°C 46°F / 8°C 82% 30.24 in
(1024 mb)
NE 4.6 mph
(NE 7 kph)
-
14:15
Partly Cloudy
52°F / 11°C 46°F / 8°C 82% 30.21 in
(1023 mb)
NE 8.1 mph
(NE 13 kph)
- 10SM
13:55
Overcast
Light Rain
50°F / 10°C 46°F / 8°C 88% 30.24 in
(1024 mb)
NE 8.1 mph
(NE 13 kph)
0.02 in
(0.51 mm)
7SM
13:35
Overcast
Light Rain
50°F / 10°C 46°F / 8°C 88% 30.24 in
(1024 mb)
NE 6.9 mph
(NE 11 kph)
0.02 in
(0.51 mm)
7SM
13:15
Overcast
Light Rain
48°F / 9°C 46°F / 8°C 94% 30.24 in
(1024 mb)
NNE 6.9 mph
(NNE 11 kph)
0.01 in
(0.25 mm)
12:55
Overcast
Light Snow
48°F / 9°C 46°F / 8°C 94% 30.24 in
(1024 mb)
N 5.8 mph
(N 9 kph)
0.05 in
(1.27 mm)
4SM
12:35
Overcast
Light Rain
48°F / 9°C 46°F / 8°C 94% 30.24 in
(1024 mb)
NE 4.6 mph
(NE 7 kph)
0.03 in
(0.76 mm)
7SM
12:15
Overcast
Light Rain
48°F / 9°C 46°F / 8°C 94% 30.24 in
(1024 mb)
N 8.1 mph
(N 13 kph)
0.02 in
(0.51 mm)
5SM
11:55
Overcast
Rain
46°F / 8°C 45°F / 7°C 93% 30.24 in
(1024 mb)
NNE 5.8 mph
(NNE 9 kph)
0.01 in
(0.25 mm)
7SM
11:35
Overcast
Light Rain
46°F / 8°C 45°F / 7°C 93% 30.24 in
(1024 mb)
N 6.9 mph
(N 11 kph)
- 10SM
11:15
Overcast
Light Rain
46°F / 8°C 45°F / 7°C 93% 30.24 in
(1024 mb)
N 4.6 mph
(N 7 kph)
- 10SM
10:55
Overcast
Light Snow
46°F / 8°C 45°F / 7°C 93% 30.24 in
(1024 mb)
N 12.7 mph
(N 20 kph)
- 10SM
10:35
Overcast
Light Rain
46°F / 8°C 45°F / 7°C 93% 30.24 in
(1024 mb)
N 11.5 mph
(N 19 kph)
- 10SM
10:15
Mostly Cloudy
Drizzle
46°F / 8°C 45°F / 7°C 93% 30.24 in
(1024 mb)
N 6.9 mph
(N 11 kph)
- 10SM
09:55
Partly Cloudy
46°F / 8°C 45°F / 7°C 93% 30.24 in
(1024 mb)
N 6.9 mph
(N 11 kph)
0.01 in
(0.25 mm)
10SM
09:35
Overcast
Drizzle
46°F / 8°C 45°F / 7°C 93% 30.24 in
(1024 mb)
N 9.2 mph
(N 15 kph)
0.01 in
(0.25 mm)
10SM
09:15
Overcast
Light Rain
46°F / 8°C 43°F / 6°C 87% 30.24 in
(1024 mb)
N 6.9 mph
(N 11 kph)
0.01 in
(0.25 mm)
10SM
08:55
Overcast
Light Snow
45°F / 7°C 43°F / 6°C 93% 30.24 in
(1024 mb)
N 5.8 mph
(N 9 kph)
0.01 in
(0.25 mm)
7SM
08:35
Overcast
Light Rain
45°F / 7°C 43°F / 6°C 93% 30.24 in
(1024 mb)
N 5.8 mph
(N 9 kph)
0.01 in
(0.25 mm)
7SM
08:15
Overcast
Light Rain
45°F / 7°C 43°F / 6°C 93% 30.24 in
(1024 mb)
N 5.8 mph
(N 9 kph)
0.01 in
(0.25 mm)
7SM
07:55
Overcast
Rain
45°F / 7°C 43°F / 6°C 93% 30.24 in
(1024 mb)
N 6.9 mph
(N 11 kph)
0.03 in
(0.76 mm)
5SM
07:35
Overcast
Light Rain
45°F / 7°C 43°F / 6°C 93% 30.24 in
(1024 mb)
N 4.6 mph
(N 7 kph)
0.02 in
(0.51 mm)
5SM
07:15
Overcast
Light Rain
45°F / 7°C 43°F / 6°C 93% 30.24 in
(1024 mb)
NE 3.5 mph
(NE 6 kph)
0.01 in
(0.25 mm)
7SM
06:55
Overcast
Light Rain
45°F / 7°C 43°F / 6°C 93% 30.24 in
(1024 mb)
NNE 3.5 mph
(NNE 6 kph)
0.03 in
(0.76 mm)
5SM
06:35
Overcast
Light Rain
45°F / 7°C 43°F / 6°C 93% 30.24 in
(1024 mb)
N 3.5 mph
(N 6 kph)
0.02 in
(0.51 mm)
7SM
06:15
Overcast
Light Rain
45°F / 7°C 43°F / 6°C 93% 30.24 in
(1024 mb)
N 5.8 mph
(N 9 kph)
0.01 in
(0.25 mm)
7SM
05:55
Overcast
Light Snow
45°F / 7°C 43°F / 6°C 93% 30.24 in
(1024 mb)
N 5.8 mph
(N 9 kph)
0.03 in
(0.76 mm)
7SM
05:35
Overcast
Light Rain
45°F / 7°C 43°F / 6°C 93% 30.24 in
(1024 mb)
NNW 4.6 mph
(NNW 7 kph)
0.01 in
(0.25 mm)
7SM
05:15
Overcast
Light Rain
45°F / 7°C 43°F / 6°C 93% 30.24 in
(1024 mb)
N 3.5 mph
(N 6 kph)
0.01 in
(0.25 mm)
7SM
04:55
Overcast
Snow
45°F / 7°C 43°F / 6°C 93% 30.24 in
(1024 mb)
N 4.6 mph
(N 7 kph)
0.01 in
(0.25 mm)
7SM
04:35
Overcast
Light Rain
45°F / 7°C 43°F / 6°C 93% 30.24 in
(1024 mb)
N 3.5 mph
(N 6 kph)
0.01 in
(0.25 mm)
7SM
04:15
Overcast
Light Rain
45°F / 7°C 43°F / 6°C 93% 30.24 in
(1024 mb)
N 3.5 mph
(N 6 kph)
- 7SM
03:55
Overcast
Light Snow
45°F / 7°C 43°F / 6°C 93% 30.24 in
(1024 mb)
Calm 0.01 in
(0.25 mm)
7SM
03:35
Overcast
Light Rain
45°F / 7°C 43°F / 6°C 93% 30.24 in
(1024 mb)
Calm 0.01 in
(0.25 mm)
7SM
03:15
Overcast
Light Rain
45°F / 7°C 43°F / 6°C 93% 30.24 in
(1024 mb)
Calm - 7SM
02:55
Overcast
Light Snow
45°F / 7°C 43°F / 6°C 93% 30.24 in
(1024 mb)
NE 3.5 mph
(NE 6 kph)
0.01 in
(0.25 mm)
7SM
02:35
Overcast
Light Rain
45°F / 7°C 43°F / 6°C 93% 30.24 in
(1024 mb)
N 4.6 mph
(N 7 kph)
0.01 in
(0.25 mm)
7SM
02:15
Overcast
Light Snow
45°F / 7°C 43°F / 6°C 93% 30.24 in
(1024 mb)
Calm - 7SM
01:55
Overcast
Light Rain
45°F / 7°C 43°F / 6°C 93% 30.24 in
(1024 mb)
Calm 0.02 in
(0.51 mm)
7SM
01:35
Overcast
Light Snow
45°F / 7°C 43°F / 6°C 93% 30.24 in
(1024 mb)
Calm 0.01 in
(0.25 mm)
7SM
01:15
Overcast
Light Rain
45°F / 7°C 43°F / 6°C 93% 30.24 in
(1024 mb)
Calm 0.01 in
(0.25 mm)
7SM
00:55
Overcast
Snow
45°F / 7°C 43°F / 6°C 93% 30.27 in
(1025 mb)
Calm 0.04 in
(1.02 mm)
7SM
00:35
Overcast
Light Snow
45°F / 7°C 43°F / 6°C 93% 30.27 in
(1025 mb)
E 3.5 mph
(E 6 kph)
0.03 in
(0.76 mm)
7SM
00:15
Overcast
Light Rain
45°F / 7°C 43°F / 6°C 93% 30.27 in
(1025 mb)
E 4.6 mph
(E 7 kph)
0.02 in
(0.51 mm)
7SM
Time Weather Temperature Dewpoint Humidity Pressure Winds Precip Visibility


Weather for websites

WeatherForYou.com, LLC is not responsible for any damages or problems caused by this service. Current weather conditions are obtained from the closest station including government and personal stations which may have varying degrees of accuracy. Weather forecasts are derived from the NOAA NDFD. Like all things, this site belongs to Jesus Christ... He just trusts me to maintain it. If you have any questions or comments email webmaster@weatherforyou.com

Copyright © 2014, WeatherForYou.com LLC. All rights reserved.